FW5295 Weather Reports


Display with metric or nautical units.
time (UTC)temp
F
wind
direction
speed
MPH
gust
MPH
rain 1hr
in
rain 24hr
in
rain mn
in
humidity
%
barometer
mb
20260902064922 76 236 2.0 4.0 0.00 0.00 0.00 87 1013.7
20260902064421 76 220 2.0 5.0 0.00 0.00 0.00 87 1013.7
20260902064146 76 231 2.0 5.0 0.00 0.00 0.00 88 1013.7
20260902063419 76 220 2.0 4.0 0.00 0.00 0.00 88 1014.0
20260902062921 76 222 2.0 4.0 0.00 0.00 0.00 88 1013.7
20260902062420 76 231 2.0 5.0 0.00 0.00 0.00 88 1013.7
20260902061921 77 223 3.0 5.0 0.00 0.00 0.00 88 1013.7
20260902061839 77 252 4.0 4.0 0.00 0.00 0.00 88 1013.7
20260902061513 77 253 2.0 4.0 0.00 0.00 0.00 88 1014.0
20260902060417 77 238 2.0 4.0 0.00 0.00 0.00 87 1014.0
20260902055920 77 267 2.0 4.0 0.00 0.00 0.00 87 1014.0
20260902055905 77 216 2.0 4.0 0.00 0.00 0.00 87 1013.7
20260902054916 77 246 2.0 4.0 0.00 0.00 0.00 88 1013.7
20260902054633 77 262 3.0 4.0 0.00 0.00 0.00 88 1013.7
20260902053916 77 223 2.0 4.0 0.00 0.00 0.00 88 1014.0
20260902053413 77 210 2.0 4.0 0.00 0.00 0.00 88 1014.0
20260902052914 77 251 2.0 3.0 0.00 0.00 0.00 88 1013.7
20260902052414 78 230 2.0 3.0 0.00 0.00 0.00 88 1013.7
20260902051915 77 228 2.0 3.0 0.00 0.00 0.00 87 1013.7
20260902051642 78 261 0.0 3.0 0.00 0.00 0.00 87 1013.7
20260902050911 78 231 0.0 3.0 0.00 0.00 0.00 87 1013.7
20260902050410 77 228 0.0 3.0 0.00 0.00 0.00 87 1013.7
20260902050131 78 201 1.0 3.0 0.00 0.00 0.00 88 1014.0
20260902045410 78 236 1.0 3.0 0.00 0.00 0.00 88 1014.0
20260902044910 78 224 2.0 3.0 0.00 0.00 0.00 88 1014.0
20260902044410 78 229 2.0 2.0 0.00 0.00 0.00 88 1014.0
20260902043910 78 209 1.0 2.0 0.00 0.00 0.00 88 1014.0
20260902043421 78 234 2.0 2.0 0.00 0.00 0.00 88 1014.0
20260902042910 78 222 2.0 3.0 0.00 0.00 0.00 89 1013.7
20260902042406 78 240 2.0 3.0 0.00 0.00 0.00 89 1013.7
20260902041910 78 226 2.0 2.0 0.00 0.00 0.00 89 1013.7
20260902041406 78 196 0.0 2.0 0.00 0.00 0.00 89 1013.7
20260902040904 78 237 1.0 3.0 0.00 0.00 0.00 89 1014.0
20260902040404 78 229 0.0 2.0 0.00 0.00 0.00 88 1014.0
20260902035904 78 230 0.0 2.0 0.00 0.00 0.00 88 1013.7
20260902035404 78 236 0.0 2.0 0.00 0.00 0.00 88 1014.0
20260902034904 78 228 2.0 3.0 0.00 0.00 0.00 88 1014.0
20260902034405 79 236 0.0 3.0 0.00 0.00 0.00 88 1014.0
20260902033902 79 221 2.0 3.0 0.00 0.00 0.00 87 1014.0
20260902033401 79 235 3.0 3.0 0.00 0.00 0.00 87 1014.3
20260902033120 79 230 3.0 3.0 0.00 0.00 0.00 87 1014.0
20260902032400 79 223 2.0 3.0 0.00 0.00 0.00 87 1014.0
20260902031901 79 234 2.0 3.0 0.00 0.00 0.00 87 1014.0
20260902031402 79 243 1.0 3.0 0.00 0.00 0.00 87 1014.0
20260902030900 79 246 2.0 3.0 0.00 0.00 0.00 87 1014.0
20260902030400 79 236 2.0 3.0 0.00 0.00 0.00 87 1014.0
20260902025900 79 239 2.0 3.0 0.00 0.00 0.00 87 1014.0
20260902025359 79 257 2.0 3.0 0.00 0.00 0.00 87 1014.0
20260902024857 80 253 2.0 3.0 0.00 0.00 0.00 87 1014.0
20260902024358 80 231 2.0 2.0 0.00 0.00 0.00 87 1014.0
20260902023856 80 264 2.0 2.0 0.00 0.00 0.00 87 1014.0
20260902023616 80 258 2.0 2.0 0.00 0.00 0.00 87 1014.3
20260902022856 80 249 2.0 2.0 0.00 0.00 0.00 87 1014.3
20260902022356 80 249 2.0 3.0 0.00 0.00 0.00 87 1014.0
20260902021856 80 254 2.0 3.0 0.00 0.00 0.00 87 1014.0
20260902021354 80 282 2.0 2.0 0.00 0.00 0.00 87 1014.0
20260902020853 80 254 2.0 2.0 0.00 0.00 0.00 87 1013.7
20260902020353 80 237 2.0 2.0 0.00 0.00 0.00 87 1013.7
20260902015853 80 246 1.0 2.0 0.00 0.00 0.00 87 1014.0
20260902015351 80 253 1.0 2.0 0.00 0.00 0.00 87 1014.0
20260902014851 81 250 1.0 2.0 0.00 0.00 0.00 86 1013.7
20260902014617 81 244 1.0 2.0 0.00 0.00 0.00 86 1013.7
20260902013849 81 262 1.0 2.0 0.00 0.00 0.00 85 1014.0
20260902013351 81 240 2.0 2.0 0.00 0.00 0.00 85 1013.7
20260902012850 81 257 1.0 2.0 0.00 0.00 0.00 84 1013.7
20260902012348 82 234 1.0 2.0 0.00 0.00 0.00 84 1013.7
20260902011849 82 223 2.0 2.0 0.00 0.00 0.00 84 1013.3
20260902011401 82 239 1.0 2.0 0.00 0.00 0.00 83 1013.7
20260902010902 82 244 1.0 3.0 0.00 0.00 0.00 83 1013.3
20260902010346 82 255 2.0 3.0 0.00 0.00 0.00 82 1013.3
20260902010111 83 263 2.0 3.0 0.00 0.00 0.00 82 1013.3
20260902005347 83 260 3.0 3.0 0.00 0.00 0.00 81 1012.9
20260902005105 83 262 0.0 3.0 0.00 0.00 0.00 81 1012.9
20260902004346 83 246 2.0 3.0 0.00 0.00 0.00 80 1012.5
20260902003845 84 225 1.0 2.0 0.00 0.00 0.00 80 1012.9
20260902003344 84 214 1.0 2.0 0.00 0.00 0.00 79 1012.9
20260902002843 84 250 2.0 3.0 0.00 0.00 0.00 79 1012.9
20260902002343 85 230 1.0 3.0 0.00 0.00 0.00 80 1012.5
20260902001842 85 254 0.0 3.0 0.00 0.00 0.00 79 1012.9
20260902001342 85 223 1.0 3.0 0.00 0.00 0.00 80 1012.9
20260902001108 85 237 2.0 3.0 0.00 0.00 0.00 80 1012.9
20260902000344 85 240 2.0 2.0 0.00 0.00 0.00 80 1012.9
20260901235841 86 248 1.0 2.0 0.00 0.00 0.00 80 1012.9
20260901235339 86 256 1.0 2.0 0.00 0.00 0.00 80 1013.3
20260901234841 86 224 2.0 2.0 0.00 0.00 0.00 79 1012.9
20260901234352 86 257 1.0 2.0 0.00 0.00 0.00 79 1012.9
20260901233837 87 266 1.0 2.0 0.00 0.00 0.00 78 1013.3
20260901233338 87 261 2.0 2.0 0.00 0.00 0.00 78 1013.3
20260901232836 87 252 1.0 2.0 0.00 0.00 0.00 78 1013.3
20260901232336 87 255 1.0 2.0 0.00 0.00 0.00 78 1013.3
20260901231837 87 221 0.0 3.0 0.00 0.00 0.00 78 1013.3
20260901231335 87 252 1.0 3.0 0.00 0.00 0.00 77 1013.3
20260901230836 88 266 2.0 3.0 0.00 0.00 0.00 77 1013.3
20260901230336 88 248 2.0 4.0 0.00 0.00 0.00 76 1012.9
20260901225836 88 236 2.0 4.0 0.00 0.00 0.00 75 1013.3
20260901225333 88 220 2.0 3.0 0.00 0.00 0.00 76 1013.3
20260901224834 88 215 2.0 3.0 0.00 0.00 0.00 76 1013.3
20260901224333 88 251 2.0 3.0 0.00 0.00 0.00 76 1013.3
20260901223843 88 256 1.0 2.0 0.00 0.00 0.00 76 1013.3
20260901223331 88 234 2.0 3.0 0.00 0.00 0.00 75 1013.3
20260901222831 88 226 2.0 3.0 0.00 0.00 0.00 74 1013.7
20260901222330 89 223 2.0 3.0 0.00 0.00 0.00 74 1013.7
20260901221829 89 265 2.0 4.0 0.00 0.00 0.00 75 1013.3
20260901221329 89 261 1.0 4.0 0.00 0.00 0.00 74 1013.7
20260901220830 89 262 2.0 4.0 0.00 0.01 0.00 74 1013.7
20260901220329 89 256 4.0 4.0 0.00 0.01 0.00 74 1013.3
20260901220049 89 229 2.0 4.0 0.00 0.01 0.00 74 1013.3
20260901215327 89 202 2.0 5.0 0.00 0.01 0.00 74 1013.3
20260901214827 89 355 1.0 5.0 0.00 0.01 0.00 73 1013.3
20260901214327 90 355 1.0 5.0 0.00 0.03 0.00 73 1013.3
20260901213827 90 248 2.0 4.0 0.00 0.03 0.00 73 1013.3
20260901213326 89 271 1.0 4.0 0.00 0.03 0.00 74 1013.3
20260901212826 89 254 2.0 4.0 0.00 0.05 0.00 74 1013.3
20260901212550 89 228 1.0 3.0 0.00 0.05 0.00 76 1013.7
20260901212045 89 280 2.0 3.0 0.00 0.05 0.00 77 1013.7
20260901211323 90 244 2.0 3.0 0.00 0.05 0.00 75 1013.3
20260901210822 90 248 2.0 4.0 0.00 0.05 0.00 75 1013.3
20260901210322 90 232 2.0 4.0 0.00 0.05 0.00 74 1013.7
20260901205821 90 227 3.0 4.0 0.00 0.05 0.00 73 1013.3
20260901205325 90 261 3.0 5.0 0.00 0.05 0.00 72 1013.7
20260901204821 90 253 2.0 5.0 0.00 0.05 0.00 73 1013.7
20260901204319 90 258 2.0 3.0 0.00 0.05 0.00 73 1013.7
20260901203821 89 249 2.0 4.0 0.00 0.05 0.00 74 1013.7
20260901203319 89 263 3.0 4.0 0.00 0.05 0.00 74 1013.7
20260901202819 90 256 2.0 5.0 0.00 0.05 0.00 73 1013.7
20260901202318 90 290 2.0 5.0 0.00 0.05 0.00 72 1013.7
20260901201819 91 247 3.0 5.0 0.00 0.05 0.00 71 1013.7
20260901201316 91 245 2.0 5.0 0.00 0.05 0.00 71 1013.7
20260901200817 91 272 2.0 5.0 0.00 0.05 0.00 71 1013.7
20260901200316 91 236 3.0 5.0 0.00 0.07 0.00 71 1013.7
20260901195816 91 250 2.0 5.0 0.00 0.07 0.00 70 1013.7
20260901195316 91 240 4.0 5.0 0.00 0.07 0.00 72 1013.3
20260901194815 91 257 4.0 5.0 0.00 0.07 0.00 71 1013.7
20260901194314 91 249 4.0 5.0 0.00 0.07 0.00 73 1013.7
20260901193816 91 223 2.0 6.0 0.00 0.07 0.00 73 1013.7
20260901193315 91 251 2.0 6.0 0.00 0.07 0.00 73 1013.7
20260901192814 91 224 4.0 6.0 0.00 0.07 0.00 72 1014.0
20260901192313 91 252 2.0 6.0 0.00 0.07 0.00 74 1014.0
20260901191811 91 267 4.0 6.0 0.00 0.07 0.00 74 1013.7
20260901191324 91 256 4.0 6.0 0.00 0.07 0.00 72 1014.0
20260901190815 91 256 2.0 6.0 0.00 0.07 0.00 75 1014.0
20260901190310 91 245 2.0 6.0 0.00 0.07 0.00 73 1014.0
20260901185812 91 281 4.0 5.0 0.00 0.07 0.00 74 1014.0
20260901185529 90 243 2.0 5.0 0.00 0.07 0.00 74 1014.0
20260901184810 90 246 2.0 6.0 0.00 0.07 0.00 72 1014.0
20260901184309 91 244 4.0 6.0 0.00 0.07 0.00 71 1014.0
20260901183807 90 223 3.0 8.0 0.00 0.07 0.00 71 1014.0
20260901183308 90 261 2.0 8.0 0.00 0.07 0.00 70 1014.3
20260901182807 90 241 4.0 4.0 0.00 0.07 0.00 72 1014.0
20260901182307 90 263 1.0 4.0 0.00 0.07 0.00 72 1014.0
20260901182254 90 212 2.0 8.0 0.00 0.08 0.00 69 1014.0
20260901181305 90 299 2.0 8.0 0.00 0.08 0.00 69 1014.0
20260901180805 89 265 2.0 5.0 0.00 0.08 0.00 72 1014.3
20260901180305 90 285 3.0 6.0 0.00 0.08 0.00 71 1014.0
20260901175804 90 231 3.0 6.0 0.00 0.08 0.00 70 1014.0
20260901175305 89 254 3.0 6.0 0.00 0.08 0.00 71 1014.3
20260901174802 89 238 2.0 6.0 0.00 0.08 0.00 70 1014.3
20260901174303 89 234 3.0 7.0 0.00 0.08 0.00 70 1014.3
20260901174016 89 259 2.0 6.0 0.00 0.08 0.00 69 1014.3
20260901173859 89 236 1.0 7.0 0.00 0.08 0.00 70 1014.3
20260901172803 89 251 2.0 3.0 0.00 0.08 0.00 73 1014.3
20260901172300 89 224 1.0 6.0 0.00 0.08 0.00 71 1014.3
20260901171758 88 252 4.0 6.0 0.00 0.08 0.00 73 1014.3
20260901171300 88 263 3.0 6.0 0.00 0.08 0.00 73 1014.3
20260901170759 88 252 2.0 6.0 0.00 0.08 0.00 75 1014.3
20260901170311 88 260 4.0 5.0 0.00 0.08 0.00 74 1014.3
20260901165758 88 284 4.0 5.0 0.00 0.08 0.00 77 1014.3
20260901165259 88 229 0.0 5.0 0.00 0.08 0.00 78 1014.7
20260901165016 87 212 4.0 5.0 0.00 0.08 0.00 79 1014.7
20260901164257 87 236 3.0 5.0 0.00 0.08 0.00 78 1014.3
20260901164016 87 233 3.0 5.0 0.00 0.08 0.00 81 1014.7
20260901163256 87 246 4.0 4.0 0.00 0.08 0.00 81 1014.7
20260901162755 86 234 2.0 5.0 0.00 0.08 0.00 82 1014.7
20260901162253 86 251 3.0 5.0 0.00 0.08 0.00 81 1014.7
20260901161754 86 239 2.0 4.0 0.00 0.08 0.00 80 1014.7
20260901161252 85 212 3.0 4.0 0.00 0.08 0.00 79 1015.0
20260901160753 85 307 2.0 4.0 0.00 0.08 0.00 83 1015.0
20260901160254 85 253 2.0 4.0 0.00 0.08 0.00 83 1014.7
20260901160016 85 237 0.0 4.0 0.00 0.08 0.00 84 1014.7
20260901155252 84 285 4.0 6.0 0.00 0.08 0.00 83 1014.7
20260901154750 84 256 2.0 6.0 0.00 0.08 0.00 83 1014.7
20260901154250 84 242 3.0 5.0 0.00 0.08 0.00 85 1014.7
20260901153749 83 225 2.0 5.0 0.00 0.08 0.00 84 1014.7
20260901153250 83 254 3.0 6.0 0.00 0.08 0.00 84 1014.7
20260901153012 83 265 6.0 6.0 0.00 0.08 0.00 84 1014.7
20260901152248 83 210 3.0 4.0 0.00 0.08 0.00 87 1014.7
20260901152231 82 248 3.0 4.0 0.00 0.08 0.00 87 1014.7
20260901151247 82 240 1.0 4.0 0.00 0.08 0.00 87 1014.3
20260901150757 82 263 2.0 4.0 0.00 0.08 0.00 86 1014.7
20260901150246 82 224 3.0 4.0 0.00 0.08 0.00 86 1014.7
20260901150010 81 258 2.0 4.0 0.00 0.08 0.00 87 1014.7
20260901145245 81 215 2.0 3.0 0.00 0.08 0.00 87 1014.3
20260901144743 81 231 2.0 4.0 0.00 0.08 0.00 87 1014.7
20260901144243 81 246 3.0 4.0 0.00 0.08 0.00 87 1014.7
20260901143745 81 344 0.0 4.0 0.00 0.08 0.00 87 1014.7
20260901143245 80 228 2.0 4.0 0.00 0.08 0.00 87 1014.3
20260901143004 80 217 1.0 4.0 0.00 0.08 0.00 87 1014.3
20260901142242 80 250 2.0 3.0 0.00 0.08 0.00 88 1014.7
20260901141742 80 228 0.0 3.0 0.00 0.08 0.00 87 1014.7
20260901141241 80 217 2.0 3.0 0.00 0.08 0.00 88 1014.3
20260901140741 80 269 0.0 3.0 0.00 0.08 0.00 88 1014.3
20260901140239 80 236 2.0 3.0 0.00 0.08 0.00 88 1014.3
20260901135738 79 237 2.0 5.0 0.00 0.08 0.00 88 1014.3
20260901135239 79 260 3.0 5.0 0.00 0.08 0.00 88 1014.3
20260901134737 78 243 3.0 4.0 0.00 0.08 0.00 90 1014.3
20260901134239 78 245 1.0 6.0 0.00 0.08 0.00 90 1014.3
20260901133736 77 261 3.0 6.0 0.00 0.08 0.00 92 1014.3
20260901133237 77 240 1.0 4.0 0.00 0.08 0.00 93 1014.7
20260901132737 76 238 2.0 4.0 0.00 0.08 0.00 93 1014.3
20260901132235 76 229 2.0 3.0 0.00 0.08 0.00 94 1014.3
20260901131736 76 181 0.0 3.0 0.00 0.08 0.00 94 1014.3
20260901131233 75 260 1.0 3.0 0.00 0.08 0.00 94 1014.3
20260901130734 75 220 2.0 3.0 0.00 0.08 0.00 94 1014.7
20260901130233 75 233 1.0 3.0 0.00 0.08 0.00 95 1014.7
20260901125950 75 234 1.0 2.0 0.00 0.11 0.00 95 1014.3
20260901125234 75 229 2.0 2.0 0.00 0.11 0.00 95 1014.7
20260901125012 74 251 1.0 2.0 0.00 0.11 0.00 96 1014.7
20260901124233 74 227 1.0 2.0 0.00 0.11 0.00 96 1014.7
20260901123732 74 202 2.0 2.0 0.00 0.11 0.00 96 1014.7
20260901123229 74 240 2.0 2.0 0.00 0.11 0.00 96 1014.7
20260901122730 74 205 0.0 2.0 0.00 0.11 0.00 96 1014.7
20260901122230 74 224 0.0 2.0 0.00 0.11 0.00 96 1014.7
20260901121730 74 258 2.0 2.0 0.00 0.11 0.00 96 1014.7
20260901121229 73 235 1.0 2.0 0.00 0.11 0.00 97 1014.7
20260901121207 73 202 1.0 2.0 0.00 0.11 0.00 97 1014.3
20260901120228 73 197 1.0 2.0 0.00 0.13 0.00 97 1014.3
20260901115728 73 257 1.0 2.0 0.00 0.13 0.00 97 1014.3
20260901115457 73 235 0.0 2.0 0.00 0.13 0.00 97 1014.3
20260901114727 73 205 1.0 2.0 0.00 0.13 0.00 97 1014.3
20260901114224 73 215 2.0 2.0 0.00 0.13 0.00 97 1014.3
20260901113725 73 217 1.0 2.0 0.00 0.13 0.00 96 1014.3
20260901113445 73 209 1.0 2.0 0.00 0.13 0.00 96 1014.3
20260901112943 73 202 0.0 2.0 0.00 0.13 0.00 96 1014.0
20260901112224 73 217 0.0 0.0 0.00 0.13 0.00 96 1014.0
20260901111950 73 217 0.0 1.0 0.00 0.13 0.00 96 1013.7
20260901111221 73 224 0.0 2.0 0.00 0.13 0.00 96 1013.7
20260901110723 73 196 2.0 2.0 0.00 0.13 0.00 96 1014.0
20260901110221 73 222 1.0 2.0 0.00 0.13 0.00 96 1014.0
20260901105720 73 178 0.0 2.0 0.00 0.13 0.00 95 1013.7
20260901105219 73 172 1.0 1.0 0.00 0.13 0.00 95 1013.7
20260901104719 73 212 0.0 2.0 0.00 0.14 0.00 94 1013.7
20260901104219 74 215 1.0 2.0 0.00 0.14 0.00 94 1013.7
20260901103719 74 180 1.0 2.0 0.00 0.14 0.00 94 1013.3
20260901103220 74 116 1.0 2.0 0.00 0.14 0.00 93 1013.7
20260901102945 74 117 0.0 2.0 0.00 0.14 0.00 93 1013.7
20260901102216 75 190 0.0 2.0 0.00 0.14 0.00 93 1013.7
20260901101715 75 215 1.0 2.0 0.00 0.14 0.00 93 1013.7
20260901101215 75 217 1.0 2.0 0.00 0.14 0.00 93 1013.7
20260901100714 75 223 1.0 3.0 0.00 0.14 0.00 94 1013.7
20260901100435 74 230 2.0 4.0 0.00 0.14 0.00 94 1013.3
20260901095714 74 239 4.0 4.0 0.00 0.14 0.00 94 1013.3
20260901095213 74 209 2.0 2.0 0.00 0.14 0.00 94 1013.3
20260901094712 74 258 0.0 3.0 0.00 0.14 0.00 95 1013.3
20260901094212 74 223 1.0 3.0 0.00 0.14 0.00 95 1013.3
20260901093933 74 218 2.0 2.0 0.00 0.14 0.00 95 1013.7
20260901093211 74 224 1.0 2.0 0.00 0.14 0.00 95 1013.7
20260901092711 74 235 0.0 2.0 0.00 0.14 0.00 95 1013.3
20260901092210 74 236 0.0 2.0 0.00 0.14 0.00 95 1013.3
20260901091710 74 333 0.0 2.0 0.00 0.14 0.00 94 1013.7
20260901091223 74 179 0.0 2.0 0.00 0.14 0.00 94 1013.7
20260901090722 74 205 0.0 2.0 0.00 0.14 0.00 94 1013.7
20260901090208 74 219 1.0 2.0 0.00 0.14 0.00 94 1013.3
20260901085707 74 216 2.0 2.0 0.00 0.14 0.00 95 1013.3
20260901085207 74 217 2.0 2.0 0.00 0.14 0.00 95 1013.3
20260901084706 74 241 1.0 2.0 0.00 0.14 0.00 94 1013.3
20260901084434 74 227 0.0 2.0 0.00 0.14 0.00 94 1013.3
20260901083937 74 204 2.0 3.0 0.00 0.14 0.00 94 1013.7
20260901083205 74 214 1.0 3.0 0.00 0.14 0.00 94 1013.7
20260901082708 75 203 2.0 2.0 0.00 0.14 0.00 94 1013.3
20260901082110 75 215 0.0 2.0 0.00 0.14 0.00 94 1013.3
20260901081836 75 218 1.0 2.0 0.00 0.14 0.00 94 1012.9
20260901081108 75 117 0.0 2.0 0.00 0.14 0.00 94 1013.3
20260901080609 75 209 2.0 2.0 0.00 0.14 0.00 93 1013.3
20260901080115 75 192 1.0 4.0 0.00 0.14 0.00 93 1013.3
20260901075607 75 277 1.0 4.0 0.00 0.14 0.00 93 1013.3
20260901075120 75 210 2.0 3.0 0.00 0.14 0.00 93 1013.3
20260901074607 76 238 2.0 3.0 0.00 0.14 0.00 93 1013.3
20260901074106 76 222 2.0 3.0 0.00 0.14 0.00 93 1013.3
20260901073607 76 218 1.0 4.0 0.00 0.14 0.00 93 1013.3
20260901073106 76 259 2.0 4.0 0.00 0.14 0.00 93 1013.3
20260901073046 76 183 1.0 4.0 0.00 0.14 0.00 93 1013.3
20260901072104 76 223 2.0 4.0 0.00 0.14 0.00 93 1013.3
20260901071604 76 249 2.0 4.0 0.00 0.14 0.00 92 1013.3
20260901071104 76 250 1.0 2.0 0.00 0.14 0.00 92 1012.9
20260901070830 76 240 1.0 2.0 0.00 0.14 0.00 92 1012.9
20260901070113 76 223 1.0 2.0 0.00 0.14 0.00 92 1013.3
20260901065823 76 205 0.0 2.0 0.00 0.14 0.00 92 1013.3